sat.trackr.live / text

‹ back to catalog

STARLINK-3909

NORAD 52452 · 2022-049B

PAYLOAD ACTIVE UNKNOWN

§ Identity

Operator
Country
US
Launch date
2022-05-06
Launch site
AFETR
Launch vehicle
Mass (kg)
RCS (m²)

Purposes: comms

External: N2YO · Heavens-Above · Gunter

§ Orbital elements

Epoch: 2026-05-25T02:20:45.015936Z

Period
95.44 min
Inclination
53.2155°
Eccentricity
0.0001429
Mean motion
15.08861970 rev/d
Perigee alt
538.7 km
Apogee alt
540.7 km
Semi-major
6,917.8 km
B*
-2.1485e-4
RAAN
85.9825°
Arg perigee
63.4271°
Mean anomaly
296.6868°
Rev number
22,364

§ Raw data

STARLINK-39091 52452U 22049B   26145.09774324 -.00003708  00000+0 -21485-3 0  99912 52452  53.2155  85.9825 0001429  63.4271 296.6868 15.08861970223644

JSON: /api/v1/satellites/52452 · /tle

For live sub-satellite position, see the globe view (requires WebGL).

§ Visibility from observer

Set your observer location to see the next 7 days of passes ≥ 10°. The values pass through the URL so the page stays shareable.

No JS? Fill the form by hand. The geolocation button needs JavaScript.